CW3794 Weather Reports


Display with metric or nautical units.
time (UTC)temp
F
wind
direction
speed
MPH
gust
MPH
rain 1hr
in
rain 24hr
in
rain mn
in
humidity
%
barometer
mb
20260831212404 84 132 0.0 12.0 0.00 0.29 0.21 61 1012.9
20260831211905 84 172 0.0 7.0 0.00 0.29 0.21 60 1013.1
20260831211404 83 69 1.0 12.0 0.00 0.29 0.21 60 1013.2
20260831210904 83 165 1.0 7.0 0.00 0.29 0.21 62 1013.3
20260831210404 83 132 0.0 12.0 0.00 0.29 0.21 60 1013.5
20260831205908 83 141 0.0 3.0 0.00 0.29 0.21 61 1013.5
20260831205404 83 165 0.0 6.0 0.00 0.29 0.21 61 1013.6
20260831204904 83 165 1.0 7.0 0.00 0.29 0.21 61 1013.6
20260831204405 83 54 0.0 3.0 0.00 0.29 0.21 62 1013.7
20260831203905 83 164 0.0 8.0 0.00 0.29 0.21 62 1013.8
20260831203404 83 156 0.0 5.0 0.00 0.29 0.21 62 1013.8
20260831202904 82 150 0.0 7.0 0.00 0.29 0.21 63 1013.8
20260831202405 82 170 3.0 13.0 0.01 0.29 0.21 62 1013.9
20260831201405 82 173 0.0 6.0 0.01 0.29 0.21 65 1013.9
20260831200404 82 166 0.0 6.0 0.01 0.29 0.21 66 1013.9
20260831195904 81 165 1.0 7.0 0.01 0.29 0.21 68 1013.7
20260831195404 80 158 0.0 3.0 0.01 0.29 0.21 68 1013.9
20260831194404 79 148 0.0 3.0 0.01 0.29 0.21 68 1014.0
20260831193905 79 155 0.0 6.0 0.01 0.29 0.21 69 1014.1
20260831193404 79 166 0.0 3.0 0.01 0.29 0.21 69 1014.2
20260831191904 79 53 0.0 0.0 0.00 0.28 0.20 71 1014.3
20260831191405 78 40 0.0 0.0 0.00 0.28 0.20 71 1014.5
20260831190905 78 40 0.0 0.0 0.00 0.28 0.20 72 1014.6
20260831190404 78 40 0.0 0.0 0.00 0.28 0.20 72 1014.6
20260831185905 78 39 0.0 0.0 0.00 0.28 0.20 72 1014.8
20260831185405 77 40 0.0 0.0 0.00 0.28 0.20 72 1014.9
20260831184404 77 40 0.0 0.0 0.00 0.28 0.20 71 1015.0
20260831183904 76 40 0.0 0.0 0.00 0.28 0.20 71 1015.0
20260831183404 76 40 0.0 0.0 0.00 0.28 0.20 71 1015.1
20260831182904 76 39 0.0 0.0 0.00 0.28 0.20 71 1015.2
20260831182404 76 40 0.0 0.0 0.00 0.28 0.20 70 1015.2
20260831181404 75 40 0.0 0.0 0.00 0.28 0.20 70 1015.3
20260831180904 75 39 0.0 0.0 0.00 0.28 0.20 70 1015.3
20260831175404 75 40 0.0 0.0 0.00 0.28 0.20 69 1015.0
20260831174904 75 40 0.0 0.0 0.03 0.28 0.20 69 1014.9
20260831174404 75 40 0.0 0.0 0.05 0.28 0.20 68 1014.9
20260831173405 74 40 0.0 0.0 0.06 0.28 0.20 68 1014.8
20260831172905 74 40 0.0 0.0 0.06 0.28 0.20 68 1014.7
20260831172405 74 40 0.0 0.0 0.06 0.28 0.20 68 1014.6
20260831171905 74 40 0.0 0.0 0.06 0.28 0.20 68 1014.6
20260831171404 74 40 0.0 0.0 0.06 0.28 0.20 68 1014.6
20260831170905 74 39 0.0 0.0 0.06 0.28 0.20 69 1014.7
20260831165404 74 25 0.0 0.0 0.06 0.28 0.20 69 1014.5
20260831164904 74 24 0.0 0.0 0.03 0.25 0.17 69 1014.7
20260831164404 74 23 0.0 0.0 0.01 0.23 0.15 69 1014.9
20260831163404 74 53 0.0 0.0 0.02 0.22 0.14 69 1014.7
20260831162904 74 65 0.0 0.0 0.05 0.22 0.14 69 1014.7
20260831162404 74 73 0.0 0.0 0.05 0.22 0.14 69 1014.7
20260831161905 74 74 0.0 0.0 0.05 0.22 0.14 69 1014.6
20260831161404 74 74 0.0 0.0 0.05 0.22 0.14 69 1014.8
20260831160404 74 63 0.0 0.0 0.08 0.22 0.14 69 1014.7
20260831155905 74 63 0.0 0.0 0.12 0.22 0.14 70 1014.1
20260831154904 74 63 0.0 0.0 0.13 0.22 0.14 70 1014.3
20260831154404 74 37 0.0 1.0 0.13 0.22 0.14 71 1014.2
20260831153905 74 53 0.0 0.0 0.12 0.21 0.13 71 1014.1
20260831153404 74 45 0.0 0.0 0.11 0.20 0.12 72 1014.1
20260831152904 74 51 0.0 0.0 0.09 0.17 0.09 72 1014.3
20260831152405 74 119 0.0 0.0 0.09 0.17 0.09 73 1014.2
20260831151404 74 149 0.0 1.0 0.09 0.17 0.09 74 1014.2
20260831150404 74 130 0.0 0.0 0.06 0.14 0.06 75 1013.9
20260831145904 75 139 0.0 1.0 0.02 0.10 0.02 75 1013.8
20260831145404 75 160 1.0 5.0 0.02 0.10 0.02 75 1014.0
20260831144404 76 118 0.0 2.0 0.01 0.09 0.01 74 1013.5
20260831143904 76 156 0.0 0.0 0.01 0.09 0.01 74 1013.4
20260831143404 77 157 0.0 1.0 0.01 0.09 0.01 72 1013.3
20260831142904 78 151 1.0 6.0 0.00 0.08 0.00 70 1012.9
20260831142404 79 168 0.0 10.0 0.00 0.08 0.00 68 1012.6
20260831141905 79 188 1.0 12.0 0.00 0.08 0.00 66 1012.4
20260831141404 80 143 1.0 6.0 0.00 0.08 0.00 64 1012.2
20260831140904 80 161 0.0 2.0 0.00 0.08 0.00 63 1012.0
20260831140404 80 148 0.0 0.0 0.00 0.08 0.00 63 1011.9
20260831135904 80 153 0.0 1.0 0.00 0.08 0.00 63 1011.8
20260831135405 80 147 0.0 5.0 0.00 0.08 0.00 62 1011.8
20260831134904 80 184 0.0 3.0 0.00 0.08 0.00 62 1011.8
20260831134405 80 188 0.0 0.0 0.00 0.08 0.00 62 1011.6
20260831133904 80 188 0.0 0.0 0.00 0.08 0.00 62 1011.6
20260831133405 80 189 0.0 0.0 0.00 0.08 0.00 61 1011.4
20260831132904 80 189 0.0 0.0 0.00 0.08 0.00 60 1011.3
20260831132404 80 190 0.0 0.0 0.00 0.08 0.00 60 1011.1
20260831131904 80 192 0.0 0.0 0.00 0.08 0.00 59 1010.9
20260831131404 80 192 0.0 0.0 0.00 0.08 0.00 59 1010.7
20260831130904 80 205 0.0 0.0 0.00 0.08 0.00 59 1010.6
20260831130405 80 249 0.0 0.0 0.00 0.08 0.00 60 1010.5
20260831125904 80 249 0.0 0.0 0.00 0.08 0.00 62 1010.3
20260831125404 79 326 0.0 0.0 0.00 0.08 0.00 64 1010.3
20260831124404 79 336 0.0 0.0 0.00 0.08 0.00 64 1010.1
20260831123904 79 338 0.0 0.0 0.00 0.08 0.00 64 1009.9
20260831123404 79 337 0.0 0.0 0.00 0.08 0.00 64 1009.8
20260831122904 79 337 0.0 0.0 0.00 0.08 0.00 64 1009.7
20260831122404 79 338 0.0 0.0 0.00 0.08 0.00 64 1009.7
20260831121904 79 338 0.0 0.0 0.00 0.08 0.00 63 1009.7
20260831121404 79 337 0.0 0.0 0.00 0.08 0.00 63 1009.6
20260831120904 79 336 0.0 0.0 0.00 0.08 0.00 63 1009.6
20260831120404 79 337 0.0 0.0 0.00 0.08 0.00 63 1009.6
20260831115904 79 337 0.0 0.0 0.00 0.08 0.00 62 1009.4
20260831115404 79 339 0.0 0.0 0.00 0.08 0.00 62 1009.1
20260831114905 80 337 0.0 0.0 0.00 0.08 0.00 62 1009.0
20260831114404 80 339 0.0 0.0 0.00 0.08 0.00 62 1009.2
20260831113904 80 336 0.0 0.0 0.00 0.08 0.00 62 1009.2
20260831113404 80 337 0.0 0.0 0.00 0.08 0.00 62 1009.1
20260831112404 80 338 0.0 0.0 0.00 0.08 0.00 61 1009.0
20260831111904 80 337 0.0 0.0 0.00 0.08 0.00 60 1008.8
20260831110904 80 336 0.0 0.0 0.00 0.08 0.00 61 1008.5
20260831110404 80 336 0.0 0.0 0.00 0.08 0.00 61 1008.6
20260831105904 80 338 0.0 0.0 0.00 0.08 0.00 61 1008.6
20260831105404 80 336 0.0 0.0 0.00 0.08 0.00 61 1008.5
20260831104905 80 337 0.0 0.0 0.00 0.08 0.00 62 1008.5
20260831104404 80 337 0.0 0.0 0.00 0.08 0.00 62 1008.5
20260831103904 80 337 0.0 0.0 0.00 0.08 0.00 63 1008.4
20260831103404 80 337 0.0 0.0 0.00 0.08 0.00 63 1008.4
20260831102404 80 340 0.0 0.0 0.00 0.08 0.00 63 1008.4
20260831101404 80 17 0.0 0.0 0.00 0.08 0.00 62 1008.3
20260831100905 79 17 0.0 0.0 0.00 0.08 0.00 63 1008.5
20260831100404 79 17 0.0 0.0 0.00 0.08 0.00 64 1008.4
20260831095904 79 17 0.0 0.0 0.00 0.08 0.00 65 1008.5
20260831095404 79 17 0.0 0.0 0.00 0.08 0.00 65 1008.5
20260831094904 79 17 0.0 0.0 0.00 0.08 0.00 65 1008.6
20260831094404 79 17 0.0 0.0 0.00 0.08 0.00 65 1008.6
20260831093904 79 17 0.0 0.0 0.00 0.08 0.00 64 1008.7
20260831093405 79 17 0.0 0.0 0.00 0.08 0.00 64 1008.8
20260831092904 79 17 0.0 0.0 0.00 0.08 0.00 64 1008.8
20260831092404 79 17 0.0 0.0 0.00 0.08 0.00 63 1008.7
20260831091904 79 17 0.0 0.0 0.00 0.08 0.00 63 1008.4
20260831091404 80 17 0.0 0.0 0.00 0.08 0.00 62 1008.2
20260831090904 80 17 0.0 0.0 0.00 0.08 0.00 62 1008.1
20260831090404 80 17 0.0 0.0 0.00 0.08 0.00 61 1008.1
20260831085904 80 17 0.0 0.0 0.00 0.08 0.00 60 1008.1
20260831084904 80 17 0.0 0.0 0.00 0.08 0.00 60 1007.9
20260831084404 80 17 0.0 0.0 0.00 0.08 0.00 60 1007.9
20260831083904 81 18 0.0 0.0 0.00 0.08 0.00 61 1008.0
20260831083404 81 18 0.0 0.0 0.00 0.08 0.00 60 1008.1
20260831082904 81 19 0.0 2.0 0.00 0.08 0.00 59 1008.1
20260831081904 81 10 0.0 2.0 0.00 0.08 0.00 60 1008.3
20260831081404 81 3 0.0 2.0 0.00 0.08 0.00 61 1008.4
20260831080904 81 4 0.0 5.0 0.00 0.08 0.00 61 1008.6
20260831080404 81 347 1.0 6.0 0.00 0.08 0.00 61 1008.5
20260831075904 81 353 1.0 17.0 0.00 0.08 0.00 62 1008.5
20260831075404 80 358 5.0 21.0 0.00 0.08 0.00 64 1008.6
20260831074905 79 348 0.0 14.0 0.02 0.08 0.00 67 1008.7
20260831074404 79 350 7.0 18.0 0.02 0.08 0.00 68 1008.7
20260831073404 78 352 3.0 15.0 0.03 0.08 0.00 71 1009.0
20260831072904 77 352 3.0 16.0 0.04 0.08 0.00 72 1009.2
20260831072404 76 355 5.0 15.0 0.05 0.08 0.00 73 1009.5
20260831071904 76 345 3.0 20.0 0.06 0.08 0.00 74 1009.5
20260831071404 76 344 2.0 20.0 0.06 0.08 0.00 74 1009.6
20260831070905 76 350 2.0 20.0 0.07 0.08 0.00 74 1009.7
20260831065904 76 346 5.0 17.0 0.07 0.08 0.08 74 1009.8
20260831065404 77 338 5.0 18.0 0.08 0.08 0.08 74 1009.8
20260831064904 77 346 6.0 16.0 0.06 0.06 0.06 74 1009.6
20260831064404 77 349 4.0 21.0 0.06 0.06 0.06 74 1009.5
20260831063904 77 344 3.0 20.0 0.05 0.05 0.05 74 1009.5
20260831063404 78 345 7.0 20.0 0.05 0.05 0.05 74 1009.3
20260831062904 78 327 6.0 16.0 0.04 0.04 0.04 73 1009.6
20260831061904 79 348 1.0 13.0 0.02 0.02 0.02 73 1010.1
20260831061404 79 336 2.0 10.0 0.02 0.02 0.02 72 1010.3
20260831060904 80 314 0.0 3.0 0.01 0.01 0.01 72 1010.6
20260831060404 80 313 0.0 16.0 0.01 0.01 0.01 72 1010.3
20260831055904 80 318 0.0 3.0 0.01 0.01 0.01 72 1010.3
20260831055403 80 296 0.0 1.0 0.00 0.00 0.00 72 1010.5
20260831054903 80 334 0.0 9.0 0.00 0.00 0.00 72 1010.3
20260831054404 80 343 1.0 10.0 0.00 0.00 0.00 71 1009.8
20260831053904 80 317 0.0 14.0 0.00 0.00 0.00 72 1009.6
20260831053403 80 322 0.0 9.0 0.00 0.00 0.00 71 1010.0
20260831052904 80 329 5.0 22.0 0.00 0.00 0.00 70 1010.0
20260831052404 81 345 3.0 18.0 0.00 0.00 0.00 68 1010.2
20260831051904 82 336 7.0 21.0 0.00 0.00 0.00 64 1010.3
20260831051404 84 330 1.0 12.0 0.00 0.00 0.00 59 1010.3
20260831050404 86 207 0.0 2.0 0.00 0.00 0.00 53 1009.4
20260831045404 89 197 1.0 12.0 0.00 0.00 0.00 47 1007.9
20260831044904 91 209 7.0 20.0 0.00 0.00 0.00 46 1007.3
20260831044404 92 194 0.0 3.0 0.00 0.00 0.00 43 1006.9
20260831043904 93 196 0.0 6.0 0.00 0.00 0.00 42 1006.8
20260831043404 93 199 0.0 7.0 0.00 0.00 0.00 41 1006.7
20260831042904 95 205 1.0 6.0 0.00 0.00 0.00 39 1006.8
20260831041904 97 254 0.0 0.0 0.00 0.00 0.00 35 1006.1
20260831041404 97 253 0.0 0.0 0.00 0.00 0.00 35 1006.1
20260831040904 97 253 0.0 0.0 0.00 0.00 0.00 35 1006.0
20260831040404 97 252 0.0 0.0 0.00 0.00 0.00 35 1005.9
20260831035904 98 252 0.0 0.0 0.00 0.00 0.00 35 1006.0
20260831035403 98 253 0.0 0.0 0.00 0.00 0.00 35 1006.0
20260831034904 98 252 0.0 0.0 0.00 0.00 0.00 35 1006.0
20260831034404 98 253 0.0 0.0 0.00 0.00 0.00 35 1006.0
20260831033904 98 253 0.0 0.0 0.00 0.00 0.00 35 1005.9
20260831033404 98 253 0.0 0.0 0.00 0.00 0.00 35 1005.8
20260831032904 98 253 0.0 0.0 0.00 0.00 0.00 35 1006.0
20260831032404 98 253 0.0 0.0 0.00 0.00 0.00 35 1006.0
20260831031904 98 253 0.0 0.0 0.00 0.00 0.00 35 1006.0
20260831031404 98 253 0.0 0.0 0.00 0.00 0.00 34 1005.8
20260831030404 98 253 0.0 0.0 0.00 0.00 0.00 35 1005.7
20260831025904 98 252 0.0 0.0 0.00 0.00 0.00 34 1005.8
20260831025404 98 253 0.0 0.0 0.00 0.00 0.00 34 1005.7
20260831024904 98 254 0.0 0.0 0.00 0.00 0.00 34 1005.6
20260831024403 98 255 0.0 0.0 0.00 0.00 0.00 34 1005.6
20260831023904 98 254 0.0 0.0 0.00 0.00 0.00 34 1005.5
20260831023404 98 254 0.0 0.0 0.00 0.00 0.00 34 1005.3
20260831022904 99 255 0.0 0.0 0.00 0.00 0.00 34 1005.3
20260831021904 99 256 0.0 0.0 0.00 0.00 0.00 34 1005.2
20260831021404 99 256 0.0 0.0 0.00 0.00 0.00 34 1005.0
20260831020904 99 256 0.0 0.0 0.00 0.00 0.00 34 1004.9
20260831020404 99 287 0.0 0.0 0.00 0.00 0.00 34 1004.9
20260831015903 99 286 0.0 0.0 0.00 0.00 0.00 33 1005.0
20260831014903 99 257 0.0 0.0 0.00 0.00 0.00 33 1004.7
20260831014404 99 260 0.0 0.0 0.00 0.00 0.00 33 1004.7
20260831013904 100 243 0.0 0.0 0.00 0.00 0.00 33 1004.7
20260831013403 100 243 0.0 0.0 0.00 0.00 0.00 33 1004.7
20260831012903 100 247 0.0 0.0 0.00 0.00 0.00 32 1004.6
20260831012404 100 280 0.0 0.0 0.00 0.00 0.00 33 1004.7
20260831011404 100 280 0.0 0.0 0.00 0.00 0.00 33 1004.7
20260831010904 101 287 0.0 0.0 0.00 0.00 0.00 33 1004.7
20260831010403 101 323 0.0 10.0 0.00 0.00 0.00 32 1004.7
20260831005404 101 227 0.0 0.0 0.00 0.00 0.00 32 1004.8
20260831004904 102 249 0.0 0.0 0.00 0.00 0.00 32 1004.8
20260831004404 102 249 0.0 0.0 0.00 0.00 0.00 32 1004.8
20260831003904 102 249 0.0 0.0 0.00 0.00 0.00 32 1004.8
20260831003404 102 248 0.0 0.0 0.00 0.00 0.00 32 1004.8
20260831002904 102 250 0.0 0.0 0.00 0.00 0.00 31 1004.8
20260831002403 102 249 0.0 0.0 0.00 0.00 0.00 32 1004.8
20260831001904 103 239 0.0 1.0 0.00 0.00 0.00 31 1004.7
20260831001403 103 258 0.0 0.0 0.00 0.00 0.00 32 1004.7
20260831000904 103 258 0.0 0.0 0.00 0.00 0.00 32 1004.8
20260831000403 103 237 0.0 0.0 0.00 0.00 0.00 32 1004.8
20260830235903 102 236 0.0 0.0 0.00 0.00 0.00 32 1005.0
20260830235404 102 236 0.0 0.0 0.00 0.00 0.00 33 1005.0
20260830233903 102 236 0.0 0.0 0.00 0.00 0.00 32 1005.2
20260830232904 102 238 0.0 0.0 0.00 0.00 0.00 32 1005.3
20260830231904 102 216 0.0 1.0 0.00 0.00 0.00 32 1005.4
20260830231403 102 225 0.0 0.0 0.00 0.00 0.00 32 1005.5
20260830230904 102 346 0.0 0.0 0.00 0.00 0.00 32 1005.5
20260830230403 102 346 0.0 0.0 0.00 0.00 0.00 32 1005.6
20260830225904 102 346 0.0 0.0 0.00 0.00 0.00 32 1005.6
20260830225404 102 346 0.0 0.0 0.00 0.00 0.00 32 1005.7
20260830224903 102 346 0.0 0.0 0.00 0.00 0.00 31 1005.7
20260830223404 103 254 0.0 0.0 0.00 0.00 0.00 31 1005.8
20260830222404 103 252 0.0 0.0 0.00 0.00 0.00 31 1006.0
20260830221904 103 252 0.0 0.0 0.00 0.00 0.00 31 1006.1
20260830221404 103 300 0.0 0.0 0.00 0.00 0.00 32 1006.2
20260830220903 102 302 0.0 0.0 0.00 0.00 0.00 32 1006.4
20260830215904 102 309 0.0 0.0 0.00 0.00 0.00 32 1006.6
20260830215404 102 309 0.0 0.0 0.00 0.00 0.00 32 1006.7
20260830214403 102 259 0.0 1.0 0.00 0.00 0.00 32 1006.9
20260830213404 102 230 0.0 0.0 0.00 0.00 0.00 33 1007.2